| time (UTC) | temp F | wind direction | speed MPH | gust MPH | rain 1hr in | rain 24hr in | rain mn in | humidity % | barometer mb |
| 20260505025021 | 67 | 103 | 7.0 | 10.0 | 0.00 | 0.00 | 0.00 | 42 | 1002.2 |
| 20260505024546 | 67 | 103 | 6.0 | 10.0 | 0.00 | 0.00 | 0.00 | 42 | 1002.2 |
| 20260505024023 | 67 | 103 | 6.0 | 10.0 | 0.00 | 0.00 | 0.00 | 42 | 1002.2 |
| 20260505023521 | 67 | 96 | 7.0 | 10.0 | 0.00 | 0.00 | 0.00 | 41 | 1002.0 |
| 20260505023046 | 67 | 88 | 6.0 | 9.0 | 0.00 | 0.00 | 0.00 | 40 | 1001.9 |
| 20260505022527 | 67 | 94 | 6.0 | 8.0 | 0.00 | 0.00 | 0.00 | 39 | 1002.1 |
| 20260505022024 | 67 | 96 | 5.0 | 8.0 | 0.00 | 0.00 | 0.00 | 38 | 1002.0 |
| 20260505021544 | 68 | 98 | 4.0 | 8.0 | 0.00 | 0.00 | 0.00 | 36 | 1002.0 |
| 20260505021023 | 69 | 98 | 5.0 | 10.0 | 0.00 | 0.00 | 0.00 | 36 | 1001.9 |
| 20260505020520 | 70 | 88 | 6.0 | 11.0 | 0.00 | 0.00 | 0.00 | 35 | 1001.8 |
| 20260505020039 | 70 | 93 | 7.0 | 11.0 | 0.00 | 0.00 | 0.00 | 34 | 1001.9 |
| 20260505015521 | 71 | 88 | 8.0 | 12.0 | 0.00 | 0.00 | 0.00 | 33 | 1001.9 |
| 20260505015026 | 72 | 86 | 8.0 | 13.0 | 0.00 | 0.00 | 0.00 | 31 | 1001.7 |
| 20260505014545 | 73 | 79 | 9.0 | 13.0 | 0.00 | 0.00 | 0.00 | 30 | 1001.6 |
| 20260505014021 | 73 | 67 | 9.0 | 13.0 | 0.00 | 0.00 | 0.00 | 30 | 1001.5 |
| 20260505013523 | 73 | 64 | 7.0 | 12.0 | 0.00 | 0.00 | 0.00 | 30 | 1001.3 |
| 20260505013127 | 73 | 61 | 7.0 | 13.0 | 0.00 | 0.00 | 0.00 | 30 | 1001.3 |
| 20260505013041 | 73 | 61 | 7.0 | 13.0 | 0.00 | 0.00 | 0.00 | 30 | 1001.3 |
| 20260505012521 | 74 | 59 | 6.0 | 13.0 | 0.00 | 0.00 | 0.00 | 29 | 1001.2 |
| 20260505012022 | 74 | 49 | 8.0 | 13.0 | 0.00 | 0.00 | 0.00 | 28 | 1001.1 |
| 20260505011542 | 75 | 53 | 7.0 | 12.0 | 0.00 | 0.00 | 0.00 | 28 | 1001.1 |
| 20260505011023 | 76 | 42 | 6.0 | 13.0 | 0.00 | 0.00 | 0.00 | 27 | 1001.2 |
| 20260505010522 | 76 | 61 | 6.0 | 13.0 | 0.00 | 0.00 | 0.00 | 26 | 1001.1 |
| 20260505010043 | 77 | 51 | 7.0 | 14.0 | 0.00 | 0.00 | 0.00 | 25 | 1001.3 |
| 20260505005521 | 78 | 76 | 9.0 | 14.0 | 0.00 | 0.00 | 0.00 | 25 | 1001.1 |
| 20260505005024 | 78 | 61 | 10.0 | 14.0 | 0.00 | 0.00 | 0.00 | 25 | 1001.2 |
| 20260505004536 | 79 | 55 | 8.0 | 13.0 | 0.00 | 0.00 | 0.00 | 24 | 1001.1 |
| 20260505004021 | 79 | 58 | 9.0 | 16.0 | 0.00 | 0.00 | 0.00 | 23 | 1001.1 |
| 20260505003527 | 80 | 66 | 8.0 | 16.0 | 0.00 | 0.00 | 0.00 | 23 | 1001.2 |
| 20260505003041 | 80 | 56 | 10.0 | 16.0 | 0.00 | 0.00 | 0.00 | 22 | 1001.0 |
| 20260505002524 | 80 | 69 | 8.0 | 14.0 | 0.00 | 0.00 | 0.00 | 22 | 1001.1 |
| 20260505002024 | 80 | 67 | 10.0 | 14.0 | 0.00 | 0.00 | 0.00 | 23 | 1001.1 |
| 20260505001549 | 80 | 71 | 8.0 | 14.0 | 0.00 | 0.00 | 0.00 | 23 | 1001.0 |
| 20260505001022 | 80 | 72 | 8.0 | 14.0 | 0.00 | 0.00 | 0.00 | 22 | 1001.2 |
| 20260505000521 | 80 | 58 | 10.0 | 18.0 | 0.00 | 0.00 | 0.00 | 22 | 1001.1 |
| 20260505000049 | 80 | 57 | 10.0 | 18.0 | 0.00 | 0.00 | 0.00 | 23 | 1001.2 |
| 20260504235523 | 80 | 63 | 9.0 | 16.0 | 0.00 | 0.00 | 0.00 | 22 | 1001.1 |
| 20260504235023 | 80 | 55 | 10.0 | 16.0 | 0.00 | 0.00 | 0.00 | 22 | 1001.1 |
| 20260504234546 | 81 | 59 | 10.0 | 15.0 | 0.00 | 0.00 | 0.00 | 21 | 1001.0 |
| 20260504234022 | 81 | 69 | 9.0 | 13.0 | 0.00 | 0.00 | 0.00 | 21 | 1001.2 |
| 20260504233521 | 81 | 74 | 6.0 | 14.0 | 0.00 | 0.00 | 0.00 | 20 | 1001.0 |
| 20260504233040 | 81 | 51 | 9.0 | 14.0 | 0.00 | 0.00 | 0.00 | 20 | 1001.2 |
| 20260504232522 | 81 | 73 | 9.0 | 16.0 | 0.00 | 0.00 | 0.00 | 20 | 1001.2 |
| 20260504232020 | 81 | 66 | 10.0 | 19.0 | 0.00 | 0.00 | 0.00 | 20 | 1001.2 |
| 20260504231556 | 81 | 78 | 12.0 | 19.0 | 0.00 | 0.00 | 0.00 | 20 | 1001.3 |
| 20260504231024 | 81 | 74 | 12.0 | 19.0 | 0.00 | 0.00 | 0.00 | 19 | 1001.2 |
| 20260504230520 | 81 | 69 | 8.0 | 16.0 | 0.00 | 0.00 | 0.00 | 19 | 1001.5 |
| 20260504230043 | 81 | 91 | 8.0 | 16.0 | 0.00 | 0.00 | 0.00 | 20 | 1001.5 |
| 20260504225521 | 83 | 87 | 7.0 | 12.0 | 0.00 | 0.00 | 0.00 | 21 | 1001.3 |
| 20260504225023 | 83 | 107 | 6.0 | 8.0 | 0.00 | 0.00 | 0.00 | 20 | 1001.5 |
| 20260504224541 | 83 | 110 | 4.0 | 7.0 | 0.00 | 0.00 | 0.00 | 17 | 1001.6 |
| 20260504224025 | 83 | 97 | 4.0 | 8.0 | 0.00 | 0.00 | 0.00 | 17 | 1001.5 |
| 20260504223525 | 83 | 107 | 4.0 | 9.0 | 0.00 | 0.00 | 0.00 | 19 | 1001.9 |
| 20260504223040 | 84 | 114 | 4.0 | 9.0 | 0.00 | 0.00 | 0.00 | 16 | 1001.7 |
| 20260504222521 | 84 | 118 | 5.0 | 9.0 | 0.00 | 0.00 | 0.00 | 15 | 1001.9 |
| 20260504222021 | 84 | 117 | 5.0 | 12.0 | 0.00 | 0.00 | 0.00 | 14 | 1001.9 |
| 20260504221543 | 84 | 151 | 6.0 | 12.0 | 0.00 | 0.00 | 0.00 | 14 | 1002.1 |
| 20260504221022 | 85 | 163 | 5.0 | 11.0 | 0.00 | 0.00 | 0.00 | 14 | 1001.9 |
| 20260504220521 | 85 | 171 | 4.0 | 10.0 | 0.00 | 0.00 | 0.00 | 14 | 1001.9 |
| 20260504220045 | 85 | 133 | 4.0 | 9.0 | 0.00 | 0.00 | 0.00 | 15 | 1001.8 |
| 20260504215521 | 85 | 161 | 4.0 | 9.0 | 0.00 | 0.00 | 0.00 | 13 | 1002.0 |
| 20260504215026 | 85 | 151 | 2.0 | 6.0 | 0.00 | 0.00 | 0.00 | 13 | 1002.0 |
| 20260504214543 | 86 | 151 | 3.0 | 6.0 | 0.00 | 0.00 | 0.00 | 13 | 1002.1 |
| 20260504214028 | 86 | 217 | 2.0 | 11.0 | 0.00 | 0.00 | 0.00 | 13 | 1002.2 |
| 20260504213522 | 86 | 241 | 3.0 | 12.0 | 0.00 | 0.00 | 0.00 | 13 | 1002.5 |
| 20260504213044 | 86 | 233 | 8.0 | 12.0 | 0.00 | 0.00 | 0.00 | 14 | 1002.5 |
| 20260504212522 | 86 | 188 | 6.0 | 10.0 | 0.00 | 0.00 | 0.00 | 13 | 1002.7 |
| 20260504212022 | 87 | 328 | 4.0 | 9.0 | 0.00 | 0.00 | 0.00 | 13 | 1002.6 |
| 20260504211548 | 86 | 140 | 2.0 | 12.0 | 0.00 | 0.00 | 0.00 | 13 | 1002.6 |
| 20260504211021 | 86 | 162 | 4.0 | 13.0 | 0.00 | 0.00 | 0.00 | 13 | 1002.5 |
| 20260504210521 | 86 | 199 | 7.0 | 16.0 | 0.00 | 0.00 | 0.00 | 13 | 1002.5 |
| 20260504210100 | 87 | 218 | 9.0 | 15.0 | 0.00 | 0.00 | 0.00 | 13 | 1002.7 |
| 20260504205520 | 87 | 193 | 6.0 | 14.0 | 0.00 | 0.00 | 0.00 | 13 | 1002.8 |
| 20260504205044 | 86 | 170 | 8.0 | 14.0 | 0.00 | 0.00 | 0.00 | 13 | 1002.8 |
| 20260504204548 | 86 | 155 | 4.0 | 12.0 | 0.00 | 0.00 | 0.00 | 13 | 1003.0 |
| 20260504204021 | 86 | 111 | 6.0 | 10.0 | 0.00 | 0.00 | 0.00 | 13 | 1003.1 |
| 20260504203523 | 86 | 69 | 3.0 | 10.0 | 0.00 | 0.00 | 0.00 | 13 | 1003.0 |
| 20260504203048 | 86 | 36 | 3.0 | 10.0 | 0.00 | 0.00 | 0.00 | 12 | 1003.2 |
| 20260504202522 | 86 | 13 | 5.0 | 10.0 | 0.00 | 0.00 | 0.00 | 13 | 1003.3 |
| 20260504202021 | 85 | 5 | 4.0 | 10.0 | 0.00 | 0.00 | 0.00 | 13 | 1003.4 |
| 20260504201548 | 86 | 272 | 5.0 | 13.0 | 0.00 | 0.00 | 0.00 | 13 | 1003.6 |
| 20260504201022 | 86 | 311 | 4.0 | 13.0 | 0.00 | 0.00 | 0.00 | 13 | 1003.8 |
| 20260504200521 | 86 | 232 | 7.0 | 13.0 | 0.00 | 0.00 | 0.00 | 13 | 1003.8 |
| 20260504200042 | 86 | 173 | 5.0 | 12.0 | 0.00 | 0.00 | 0.00 | 13 | 1003.9 |
| 20260504195521 | 86 | 105 | 4.0 | 12.0 | 0.00 | 0.00 | 0.00 | 13 | 1004.1 |
| 20260504195021 | 85 | 42 | 3.0 | 7.0 | 0.00 | 0.00 | 0.00 | 14 | 1003.9 |
| 20260504194559 | 86 | 107 | 4.0 | 9.0 | 0.00 | 0.00 | 0.00 | 14 | 1004.1 |
| 20260504194021 | 86 | 135 | 1.0 | 13.0 | 0.00 | 0.00 | 0.00 | 14 | 1004.2 |
| 20260504193521 | 86 | 138 | 5.0 | 16.0 | 0.00 | 0.00 | 0.00 | 14 | 1004.1 |
| 20260504193036 | 86 | 128 | 2.0 | 16.0 | 0.00 | 0.00 | 0.00 | 14 | 1004.3 |
| 20260504192521 | 86 | 85 | 8.0 | 16.0 | 0.00 | 0.00 | 0.00 | 13 | 1004.2 |
| 20260504192024 | 85 | 51 | 3.0 | 10.0 | 0.00 | 0.00 | 0.00 | 14 | 1004.3 |
| 20260504191547 | 85 | 80 | 3.0 | 10.0 | 0.00 | 0.00 | 0.00 | 14 | 1004.5 |
| 20260504191024 | 85 | 62 | 5.0 | 10.0 | 0.00 | 0.00 | 0.00 | 14 | 1004.4 |
| 20260504190523 | 85 | 5 | 5.0 | 9.0 | 0.00 | 0.00 | 0.00 | 14 | 1004.5 |
| 20260504190057 | 86 | 332 | 3.0 | 9.0 | 0.00 | 0.00 | 0.00 | 13 | 1004.6 |
| 20260504185525 | 86 | 333 | 2.0 | 10.0 | 0.00 | 0.00 | 0.00 | 14 | 1004.5 |
| 20260504185024 | 85 | 46 | 5.0 | 10.0 | 0.00 | 0.00 | 0.00 | 13 | 1004.7 |
| 20260504184555 | 85 | 338 | 5.0 | 9.0 | 0.00 | 0.00 | 0.00 | 14 | 1004.8 |
| 20260504184021 | 84 | 55 | 1.0 | 8.0 | 0.00 | 0.00 | 0.00 | 15 | 1005.0 |
| 20260504183526 | 84 | 346 | 4.0 | 8.0 | 0.00 | 0.00 | 0.00 | 16 | 1005.0 |
| 20260504183041 | 84 | 342 | 2.0 | 8.0 | 0.00 | 0.00 | 0.00 | 17 | 1005.3 |
| 20260504182521 | 84 | 294 | 3.0 | 8.0 | 0.00 | 0.00 | 0.00 | 17 | 1005.1 |
| 20260504182022 | 84 | 311 | 3.0 | 8.0 | 0.00 | 0.00 | 0.00 | 17 | 1005.2 |
| 20260504181543 | 83 | 0 | 2.0 | 9.0 | 0.00 | 0.00 | 0.00 | 18 | 1005.2 |
| 20260504181021 | 83 | 144 | 3.0 | 9.0 | 0.00 | 0.00 | 0.00 | 19 | 1005.4 |
| 20260504180522 | 82 | 215 | 2.0 | 8.0 | 0.00 | 0.00 | 0.00 | 19 | 1005.5 |
| 20260504180057 | 82 | 270 | 4.0 | 8.0 | 0.00 | 0.00 | 0.00 | 19 | 1005.6 |
| 20260504175520 | 82 | 284 | 3.0 | 6.0 | 0.00 | 0.00 | 0.00 | 19 | 1005.4 |
| 20260504175021 | 82 | 5 | 3.0 | 8.0 | 0.00 | 0.00 | 0.00 | 18 | 1005.6 |
| 20260504174545 | 82 | 315 | 3.0 | 9.0 | 0.00 | 0.00 | 0.00 | 19 | 1005.5 |
| 20260504174021 | 82 | 343 | 3.0 | 9.0 | 0.00 | 0.00 | 0.00 | 18 | 1005.6 |
| 20260504173523 | 82 | 337 | 2.0 | 7.0 | 0.00 | 0.00 | 0.00 | 20 | 1005.6 |
| 20260504173053 | 82 | 344 | 3.0 | 9.0 | 0.00 | 0.00 | 0.00 | 20 | 1005.8 |
| 20260504172522 | 81 | 267 | 3.0 | 11.0 | 0.00 | 0.00 | 0.00 | 21 | 1005.8 |
| 20260504172021 | 81 | 258 | 5.0 | 11.0 | 0.00 | 0.00 | 0.00 | 21 | 1005.8 |
| 20260504171542 | 81 | 267 | 5.0 | 12.0 | 0.00 | 0.00 | 0.00 | 21 | 1005.8 |
| 20260504171021 | 81 | 300 | 6.0 | 12.0 | 0.00 | 0.00 | 0.00 | 22 | 1005.7 |
| 20260504170523 | 81 | 332 | 5.0 | 10.0 | 0.00 | 0.00 | 0.00 | 22 | 1005.8 |
| 20260504151022 | 70 | 320 | 7.0 | 11.0 | 0.00 | 0.00 | 0.00 | 37 | 1005.5 |
| 20260504150520 | 69 | 336 | 6.0 | 10.0 | 0.00 | 0.00 | 0.00 | 38 | 1005.5 |
| 20260504141022 | 60 | 321 | 5.0 | 10.0 | 0.00 | 0.00 | 0.00 | 49 | 1005.6 |
| 20260504140524 | 59 | 323 | 5.0 | 10.0 | 0.00 | 0.00 | 0.00 | 50 | 1005.6 |
| 20260504130519 | 50 | 299 | 4.0 | 7.0 | 0.00 | 0.00 | 0.00 | 61 | 1005.7 |
| 20260504110523 | 50 | 225 | 3.0 | 4.0 | 0.00 | 0.00 | 0.00 | 57 | 1005.6 |
| 20260504100522 | 53 | 218 | 3.0 | 5.0 | 0.00 | 0.00 | 0.00 | 52 | 1005.3 |
| 20260504081542 | 50 | 215 | 3.0 | 6.0 | 0.00 | 0.00 | 0.00 | 50 | 1006.2 |
| 20260504081026 | 50 | 215 | 3.0 | 5.0 | 0.00 | 0.00 | 0.00 | 50 | 1006.1 |
| 20260504080522 | 50 | 215 | 2.0 | 5.0 | 0.00 | 0.00 | 0.00 | 49 | 1006.2 |
| 20260504050521 | 54 | 182 | 5.0 | 7.0 | 0.00 | 0.00 | 0.00 | 41 | 1007.4 |
| 20260504050110 | 54 | 180 | 4.0 | 7.0 | 0.00 | 0.00 | 0.00 | 41 | 1007.3 |
| 20260504045519 | 54 | 176 | 5.0 | 7.0 | 0.00 | 0.00 | 0.00 | 40 | 1007.3 |
| 20260504045019 | 55 | 173 | 6.0 | 7.0 | 0.00 | 0.00 | 0.00 | 40 | 1007.4 |
| 20260504044541 | 55 | 157 | 5.0 | 7.0 | 0.00 | 0.00 | 0.00 | 39 | 1007.6 |
| 20260504044020 | 56 | 157 | 5.0 | 7.0 | 0.00 | 0.00 | 0.00 | 38 | 1007.5 |
| 20260504043524 | 57 | 157 | 5.0 | 7.0 | 0.00 | 0.00 | 0.00 | 37 | 1007.5 |
| 20260504043044 | 58 | 157 | 5.0 | 8.0 | 0.00 | 0.00 | 0.00 | 35 | 1007.6 |
| 20260504042521 | 59 | 155 | 6.0 | 8.0 | 0.00 | 0.00 | 0.00 | 35 | 1007.8 |
| 20260504042021 | 60 | 193 | 5.0 | 7.0 | 0.00 | 0.00 | 0.00 | 33 | 1007.7 |
| 20260504041541 | 61 | 222 | 3.0 | 6.0 | 0.00 | 0.00 | 0.00 | 32 | 1007.8 |
| 20260504041021 | 62 | 223 | 4.0 | 6.0 | 0.00 | 0.00 | 0.00 | 31 | 1007.8 |
| 20260504040520 | 63 | 223 | 3.0 | 5.0 | 0.00 | 0.00 | 0.00 | 30 | 1007.5 |
| 20260504040042 | 63 | 223 | 3.0 | 4.0 | 0.00 | 0.00 | 0.00 | 30 | 1007.7 |
| 20260504035521 | 64 | 223 | 3.0 | 6.0 | 0.00 | 0.00 | 0.00 | 30 | 1007.7 |
| 20260504035023 | 64 | 223 | 2.0 | 7.0 | 0.00 | 0.00 | 0.00 | 29 | 1007.6 |
| 20260504034546 | 64 | 223 | 4.0 | 7.0 | 0.00 | 0.00 | 0.00 | 29 | 1007.7 |
| 20260504034025 | 64 | 268 | 3.0 | 8.0 | 0.00 | 0.00 | 0.00 | 29 | 1007.6 |
| 20260504033530 | 65 | 269 | 4.0 | 9.0 | 0.00 | 0.00 | 0.00 | 29 | 1007.7 |
| 20260504033045 | 66 | 252 | 6.0 | 9.0 | 0.00 | 0.00 | 0.00 | 27 | 1007.7 |
| 20260504032522 | 66 | 252 | 6.0 | 10.0 | 0.00 | 0.00 | 0.00 | 27 | 1007.7 |
| 20260504032022 | 66 | 227 | 4.0 | 10.0 | 0.00 | 0.00 | 0.00 | 28 | 1007.6 |
| 20260504031601 | 65 | 275 | 4.0 | 9.0 | 0.00 | 0.00 | 0.00 | 29 | 1007.6 |
| 20260504031020 | 64 | 290 | 6.0 | 9.0 | 0.00 | 0.00 | 0.00 | 29 | 1007.7 |
| 20260504030521 | 64 | 230 | 4.0 | 7.0 | 0.00 | 0.00 | 0.00 | 30 | 1007.6 |
| 20260504030043 | 64 | 350 | 2.0 | 7.0 | 0.00 | 0.00 | 0.00 | 30 | 1007.7 |
| 20260504025521 | 65 | 334 | 3.0 | 7.0 | 0.00 | 0.00 | 0.00 | 28 | 1007.7 |